This is the latest recevied weather packets stored in our database for station/object KI4HRG. If no packets are shown the sender has not sent any weather packets the latest 10 day(s).
| Time | Temp. | Humidity | Pressure | Rain* | Wind** | Luminosity | Snow |
|---|---|---|---|---|---|---|---|
| 1787665603 | 27.78° C | 70% | 1018.3 hPa | 0 mm | - | 323 W/m² | - |
| 1787665302 | 27.22° C | 71% | 1018.3 hPa | 0 mm | - | 296 W/m² | - |
| 1787664999 | 27.22° C | 71% | 1018.1 hPa | 0 mm | - | 263 W/m² | - |
| 1787664696 | 27.22° C | 71% | 1018.4 hPa | 0 mm | - | 274 W/m² | - |
| 1787664395 | 26.67° C | 72% | 1018.2 hPa | 0 mm | - | 270 W/m² | - |
| 1787664090 | 26.67° C | 74% | 1018.3 hPa | 0 mm | - | 244 W/m² | - |
| 1787663784 | 26.11° C | 75% | 1018.4 hPa | 0 mm | - | 232 W/m² | - |
| 1787663479 | 25.56° C | 76% | 1018.4 hPa | 0 mm | - | 225 W/m² | - |
| 1787663175 | 25.56° C | 77% | 1018.3 hPa | 0 mm | - | 204 W/m² | - |
| 1787662871 | 25° C | 77% | 1018.3 hPa | 0 mm | - | 182 W/m² | - |
| 1787662565 | 25° C | 78% | 1018.2 hPa | 0 mm | - | 155 W/m² | - |
| 1787662261 | 25° C | 79% | 1018.1 hPa | 0 mm | - | 141 W/m² | - |
| 1787661956 | 24.44° C | 80% | 1018.2 hPa | 0 mm | - | 120 W/m² | - |
| 1787661655 | 24.44° C | 80% | 1018.2 hPa | 0 mm | - | 108 W/m² | - |
| 1787661349 | 25° C | 80% | 1018.1 hPa | 0 mm | - | 105 W/m² | - |
| 1787661049 | 24.44° C | 82% | 1018 hPa | 0 mm | - | 91 W/m² | - |
| 1787660744 | 23.89° C | 83% | 1018 hPa | 0 mm | - | 74 W/m² | - |
| 1787660438 | 22.78° C | 90% | 1017.8 hPa | 0 mm | - | 54 W/m² | - |
| 1787660138 | 21.67° C | 97% | 1018 hPa | 0 mm | - | 46 W/m² | - |
| 1787659832 | 20.56° C | 98% | 1017.9 hPa | 0 mm | - | 41 W/m² | - |
| 1787659530 | 20.56° C | 97% | 1017.7 hPa | 0 mm | - | 27 W/m² | - |
| 1787659226 | 20.56° C | 98% | 1017.8 hPa | 0 mm | - | 28 W/m² | - |
| 1787658926 | 20° C | 99% | 1017.8 hPa | 0 mm | - | 26 W/m² | - |
| 1787658620 | 20° C | 99% | 1017.6 hPa | 0 mm | - | 25 W/m² | - |
| 1787658316 | 20° C | 99% | 1017.7 hPa | 0 mm | - | 21 W/m² | - |
* Rain latest hour (hover to see other rain measurements)
** Current wind speed in m/s (hover to see current wind gust speed)